Weather History for Atlantic City, NJ

Change the Weather History Date:

Monday, October 29, 2012

  Actual Average Record
Temperature  
Mean Temperature 57 °F 52 °F  
Max Temperature 63 °F 63 °F 80 °F (1984)
Min Temperature 50 °F 42 °F 26 °F (1985)
Degree Days  
Heating Degree Days 8 13  
Month to date heating degree days 202 269  
Since 1 July heating degree days 250 331  
Cooling Degree Days 0 0  
Month to date cooling degree days 31 16  
Year to date cooling degree days 1218 1050  
Growing Degree Days 7 (Base 50)    
Moisture  
Dew Point 53 °F    
Average Humidity 92    
Maximum Humidity 100    
Minimum Humidity 83    
Precipitation  
Precipitation 4.79 in 0.11 in 4.79 in (2012)
Month to date precipitation 7.65 3.18  
Year to date precipitation 39.67 34.55  
Snow  
Snow 0.00 in 0.00 in T in (2011)
Month to date snowfall 0.0 0.0  
Since 1 July snowfall 0.0 0.0  
Since 1 September snowfall 0.0 0.0  
Snow Depth 0.00 in    
Sea Level Pressure  
Sea Level Pressure 29.00 in    
Wind  
Wind Speed 26 mph (NNE)    
Max Wind Speed 51 mph    
Max Gust Speed 64 mph    
Visibility 3 miles    
Events Rain    
T = Trace of Precipitation, MM = Missing Value Source: NWS Daily Summary

Daily Weather History Graph

Daily Weather History Graph

Search for Another Location

Airport:

Trip Planner

Search our weather history database for the weather conditions in past years. The results will help you decide how hot, cold, wet, or windy it might be!

Date:

Astronomy

Oct. 29, 2012 Rise Set
Actual Time 7:23 AM EDT 5:59 PM EDT
Civil Twilight 6:55 AM EDT 6:27 PM EDT
Nautical Twilight 6:24 AM EDT 6:59 PM EDT
Astronomical Twilight 5:52 AM EDT 7:30 PM EDT
Moon 5:50 PM EDT (10/29) 7:11 AM EDT (10/29)
Length of Visible Light 11h 31m
Length of Day
10h 36m
Full, 100% of the Moon is Illuminated
Oct 29
Full
Oct 29
Full
Nov 6
Last Quarter
Nov 13
New
Nov 20
First Quarter

Hourly Weather History & Observations

Time (EDT) Temp. Dew Point Humidity Pressure Visibility Wind Dir Wind Speed Gust Speed Precip Events Conditions
12:54 AM 54.0 °F 50.0 °F 86% 29.49 in 9.0 mi NNE 25.3 mph 33.4 mph 0.06 in Rain Light Rain
1:54 AM 53.1 °F 50.0 °F 89% 29.46 in 5.0 mi NNE 24.2 mph 31.1 mph 0.06 in Rain Light Rain
2:19 AM 53.6 °F 50.0 °F 88% 29.44 in 5.0 mi NNE 20.7 mph 35.7 mph 0.05 in Rain Rain
2:54 AM 52.0 °F 50.0 °F 93% 29.42 in 5.0 mi North 23.0 mph 28.8 mph 0.15 in Rain Rain
3:54 AM 52.0 °F 48.9 °F 89% 29.36 in 7.0 mi North 25.3 mph 34.5 mph 0.14 in Rain Light Rain
4:17 AM 51.8 °F 48.2 °F 88% 29.33 in 4.0 mi North 23.0 mph 38.0 mph 0.08 in Rain Rain
4:21 AM 51.8 °F 48.2 °F 88% 29.32 in 4.0 mi North 21.9 mph 38.0 mph 0.09 in Rain Rain
4:31 AM 51.8 °F 48.2 °F 88% 29.32 in 4.0 mi North 21.9 mph 33.4 mph 0.14 in Rain Heavy Rain
4:54 AM 51.1 °F 48.0 °F 89% 29.31 in 3.0 mi North 24.2 mph 38.0 mph 0.24 in Rain Heavy Rain
5:09 AM 51.8 °F 48.2 °F 88% 29.30 in 2.5 mi North 24.2 mph 36.8 mph 0.11 in Rain Heavy Rain
5:52 AM 51.8 °F 48.2 °F 88% 29.26 in 4.0 mi North 23.0 mph 35.7 mph 0.41 in Rain Rain
5:54 AM 51.1 °F 48.9 °F 92% 29.26 in 4.0 mi North 25.3 mph 35.7 mph 0.42 in Rain Rain
6:10 AM 51.8 °F 48.2 °F 88% 29.24 in 2.5 mi North 26.5 mph 33.4 mph 0.06 in Rain Heavy Rain
6:18 AM 51.8 °F 48.2 °F 88% 29.24 in 2.5 mi North 27.6 mph 36.8 mph 0.11 in Rain Heavy Rain
6:54 AM 52.0 °F 48.9 °F 89% 29.21 in 3.0 mi North 24.2 mph 40.3 mph 0.29 in Rain Heavy Rain
7:08 AM 51.8 °F 48.2 °F 88% 29.21 in 2.5 mi North 24.2 mph 33.4 mph 0.08 in Rain Heavy Rain
7:34 AM 51.8 °F 50.0 °F 94% 29.19 in 3.0 mi North 21.9 mph 29.9 mph 0.22 in Rain Heavy Rain
7:54 AM 52.0 °F 50.0 °F 93% 29.18 in 3.0 mi North 19.6 mph 34.5 mph 0.25 in Rain Light Rain
8:03 AM 51.8 °F 50.0 °F 94% 29.18 in 2.0 mi North 21.9 mph 31.1 mph 0.02 in Rain Light Rain
8:16 AM 53.6 °F 50.0 °F 88% 29.17 in 1.5 mi North 20.7 mph 31.1 mph 0.04 in Rain Heavy Rain
8:49 AM 53.6 °F 51.8 °F 94% 29.13 in 1.2 mi North 23.0 mph 32.2 mph 0.19 in Rain Heavy Rain
8:54 AM 53.1 °F 51.1 °F 93% 29.12 in 1.0 mi North 18.4 mph 32.2 mph 0.23 in Rain Heavy Rain
9:02 AM 53.6 °F 51.8 °F 94% 29.11 in 1.5 mi North 19.6 mph 33.4 mph 0.03 in Rain Heavy Rain
9:11 AM 53.6 °F 51.8 °F 94% 29.10 in 1.8 mi North 21.9 mph 29.9 mph 0.06 in Rain Rain
9:16 AM 53.6 °F 51.8 °F 94% 29.09 in 1.2 mi North 23.0 mph 38.0 mph 0.07 in Rain Heavy Rain
9:54 AM 54.0 °F 51.1 °F 90% 29.04 in 1.2 mi North 25.3 mph 36.8 mph 0.22 in Rain Rain
10:14 AM 53.6 °F 51.8 °F 94% 29.02 in 1.2 mi North 23.0 mph 36.8 mph 0.08 in Rain Rain
10:48 AM 55.4 °F 51.8 °F 88% 28.97 in 1.5 mi North 19.6 mph 38.0 mph 0.21 in Rain Heavy Rain
10:54 AM 55.0 °F 52.0 °F 89% 28.96 in 1.5 mi North 23.0 mph 34.5 mph 0.23 in Rain Rain
11:27 AM 55.4 °F 53.6 °F 94% 28.91 in 1.2 mi North 25.3 mph 36.8 mph 0.11 in Rain Heavy Rain
11:54 AM 55.9 °F 54.0 °F 93% 28.86 in 1.2 mi North 28.8 mph 41.4 mph 0.24 in Rain Heavy Rain
12:29 PM 57.2 °F 53.6 °F 88% 28.80 in 2.0 mi North 25.3 mph 39.1 mph 0.27 in Rain Rain
12:39 PM 57.2 °F 53.6 °F 88% 28.77 in 1.2 mi North 25.3 mph 39.1 mph 0.33 in Rain Heavy Rain
12:54 PM 57.0 °F 55.0 °F 93% 28.74 in 1.2 mi North 31.1 mph 41.4 mph 0.40 in Rain Heavy Rain
1:08 PM 57.2 °F 55.4 °F 94% 28.72 in 1.5 mi North 28.8 mph 41.4 mph 0.07 in Rain Heavy Rain
1:18 PM 57.2 °F 55.4 °F 94% 28.69 in 1.2 mi North 31.1 mph 41.4 mph 0.12 in Rain Heavy Rain
1:41 PM 57.2 °F 55.4 °F 94% 28.64 in 1.0 mi North 29.9 mph 44.9 mph 0.24 in Rain Heavy Rain
1:59 PM 57.2 °F 55.4 °F 94% 28.61 in 1.0 mi North 28.8 mph 50.6 mph 0.06 in Rain Heavy Rain
2:21 PM 57.2 °F 55.4 °F 94% 28.55 in 1.2 mi North 25.3 mph 39.1 mph 0.21 in Rain Heavy Rain
2:54 PM 59.0 °F 55.9 °F 90% 28.48 in 1.0 mi North 27.6 mph 41.4 mph 0.44 in Rain Heavy Rain
3:15 PM 59.0 °F 57.2 °F 94% 28.41 in 0.8 mi North 31.1 mph 55.2 mph 0.19 in Rain Heavy Rain
3:32 PM 60.8 °F 57.2 °F 88% 28.37 in 1.0 mi North 32.2 mph 49.5 mph 0.40 in Rain Heavy Rain
3:54 PM 60.1 °F 57.9 °F 93% 28.31 in 0.8 mi North 38.0 mph 50.6 mph 0.63 in Rain Heavy Rain
4:10 PM 60.8 °F 57.2 °F 88% 28.27 in 1.0 mi NNE 34.5 mph 50.6 mph 0.16 in Rain Heavy Rain
4:54 PM 63.0 °F 60.1 °F 90% 31.13 in 1.5 mi NNE 33.4 mph 57.5 mph 0.26 in   Overcast
5:07 PM 62.6 °F 60.8 °F 94% 28.15 in 1.2 mi NNE 39.1 mph 55.2 mph N/A   Overcast
5:15 PM 62.6 °F 60.8 °F 94% 28.16 in 1.2 mi NNE 36.8 mph 58.7 mph 0.01 in   Overcast
5:24 PM 62.6 °F 60.8 °F 94% 28.14 in 1.5 mi NNE 35.7 mph 55.2 mph 0.01 in Rain Light Rain
5:41 PM 62.6 °F 60.8 °F 94% 28.14 in 2.0 mi NNE 35.7 mph 49.5 mph 0.01 in   Overcast
5:54 PM 63.0 °F 61.0 °F 93% 31.07 in 1.8 mi NNE 31.1 mph 55.2 mph 0.03 in   Overcast
6:07 PM 62.6 °F 60.8 °F 94% 28.09 in 2.0 mi NNE 34.5 mph 47.2 mph 0.01 in   Overcast
6:16 PM 62.6 °F 60.8 °F 94% 28.07 in 1.5 mi North 29.9 mph 49.5 mph 0.01 in   Overcast
6:43 PM 62.6 °F 60.8 °F 94% 28.01 in 2.0 mi North 29.9 mph 48.3 mph 0.04 in   Overcast
6:54 PM 62.1 °F 60.1 °F 93% 30.96 in 2.0 mi NNE 34.5 mph 49.5 mph 0.04 in   Overcast
7:09 PM 60.8 °F 59.0 °F 94% 28.02 in 3.0 mi NE 25.3 mph 40.3 mph 0.00 in Rain Light Rain
7:25 PM 59.0 °F 57.2 °F 94% 28.02 in 2.5 mi NNE 23.0 mph 33.4 mph 0.00 in Rain Light Rain
7:54 PM 57.9 °F 57.0 °F 97% 30.97 in 1.8 mi North 9.2 mph 21.9 mph 0.01 in   Overcast
8:32 PM 57.2 °F 57.2 °F 100% 28.09 in 2.0 mi SSW 15.0 mph 23.0 mph 0.05 in Rain Light Rain
8:44 PM 57.2 °F 57.2 °F 100% 28.14 in 3.0 mi South 12.7 mph 21.9 mph 0.06 in Rain Light Rain
8:54 PM 57.9 °F 57.0 °F 97% 31.13 in 8.0 mi South 10.4 mph - 0.06 in   Overcast
9:41 PM 53.6 °F 50.0 °F 88% 28.37 in 1.8 mi South 34.5 mph 56.4 mph N/A   Overcast
9:54 PM 52.0 °F 50.0 °F 93% 28.43 in 2.0 mi South 29.9 mph 51.8 mph 0.03 in   Overcast
10:05 PM 51.8 °F 48.2 °F 88% 28.48 in 3.0 mi South 28.8 mph 48.3 mph 0.01 in   Overcast
10:07 PM 51.8 °F 48.2 °F 88% 28.48 in 3.0 mi South 36.8 mph 50.6 mph 0.01 in   Overcast
10:54 PM 51.1 °F 48.0 °F 89% 28.63 in 4.0 mi South 35.7 mph 50.6 mph 0.01 in   Overcast
11:12 PM 51.8 °F 46.4 °F 82% 28.68 in 4.0 mi South 26.5 mph 48.3 mph 0.02 in   Overcast
11:54 PM 51.1 °F 46.0 °F 83% 28.77 in 10.0 mi South 29.9 mph 51.8 mph 0.03 in   Overcast